Zurück zum Katalog

STARLINK-36043

AktivKommunikationVLEO
NORAD 66901·PAYLOAD·🇺🇸 United States

Gestartet Dec 4, 2025 von Vandenberg Space Force Base

Loading…

Nächste Überflüge (nächste 24 Stunden)

TLE

AktuellSource: CelesTrak SupGP

Epoche: Sep 15, 2026, 02:39 UTC

1 66901C 25283Z   26258.11090278 -.00038360  00000+0 -11334-2 0  2586
2 66901  53.1579 220.5984 0001437  85.8175  69.2045 15.34408161    13

Verfolge STARLINK-36043 in Echtzeit mit AllMySat

Download on the App Store